N0ZMJ-3 Weather Reports


time (UTC)temp
C
wind
direction
speed
KPH
gust
KPH
rain 1hr
cm
rain 24hr
cm
rain mn
cm
humidity
%
barometer
mb
20260906193428 21 105 8.0 24.1 0.10 0.10 0.10 96 1016.7
20260906193300 21 105 8.0 24.1 0.10 0.10 0.10 96 1016.7
20260906192600 21 123 8.0 30.6 0.05 0.05 0.05 94 1016.6
20260906192427 23 115 4.8 30.6 0.00 0.00 0.00 91 1016.7
20260906191901 24 164 9.7 20.9 0.00 0.00 0.00 87 1016.6
20260906191427 26 116 6.4 17.7 0.00 0.00 0.00 89 1016.5
20260906191159 26 116 6.4 17.7 0.00 0.00 0.00 89 1016.5
20260906190500 26 234 1.6 3.2 0.00 0.00 0.00 91 1015.5
20260906190427 26 234 1.6 3.2 0.00 0.00 0.00 91 1015.5
20260906185800 26 234 0.0 3.2 0.00 0.00 0.00 91 1015.3
20260906185427 26 235 0.0 6.4 0.00 0.00 0.00 91 1015.2
20260906185100 26 235 0.0 6.4 0.00 0.00 0.00 91 1015.2
20260906184427 26 232 3.2 11.3 0.00 0.00 0.00 90 1015.1
20260906184401 26 232 3.2 11.3 0.00 0.00 0.00 90 1015.1
20260906183701 26 198 3.2 6.4 0.00 0.00 0.00 91 1015.1
20260906183429 26 194 1.6 6.4 0.00 0.00 0.00 91 1014.9
20260906183000 26 225 1.6 6.4 0.00 0.00 0.00 92 1014.8
20260906182429 26 224 1.6 4.8 0.00 0.00 0.00 92 1014.9
20260906182306 26 224 1.6 4.8 0.00 0.00 0.00 92 1014.9
20260906181600 26 224 1.6 8.0 0.00 0.00 0.00 92 1015.1
20260906181429 26 219 3.2 11.3 0.00 0.00 0.00 91 1015.3
20260906180859 26 221 1.6 11.3 0.00 0.00 0.00 92 1015.3
20260906180428 26 211 3.2 8.0 0.00 0.00 0.00 92 1015.5
20260906180200 26 211 3.2 8.0 0.00 0.00 0.00 92 1015.5
20260906175459 26 247 1.6 9.7 0.00 0.00 0.00 92 1015.6
20260906175428 26 247 1.6 9.7 0.00 0.00 0.00 92 1015.6
20260906174758 26 248 1.6 8.0 0.00 0.00 0.00 91 1015.5
20260906174427 26 232 1.6 6.4 0.00 0.00 0.00 93 1015.4
20260906174105 26 232 1.6 6.4 0.00 0.00 0.00 93 1015.4
20260906173429 26 232 0.0 6.4 0.00 0.00 0.00 93 1015.2
20260906173401 26 232 0.0 6.4 0.00 0.00 0.00 93 1015.2
20260906172700 26 232 1.6 6.4 0.00 0.00 0.00 94 1015.2
20260906172429 26 232 3.2 4.8 0.00 0.00 0.00 94 1015.2
20260906172001 26 232 0.0 9.7 0.00 0.00 0.00 94 1015.2
20260906171428 26 233 3.2 9.7 0.00 0.00 0.00 95 1015.2
20260906171304 26 233 3.2 9.7 0.00 0.00 0.00 95 1015.2
20260906170602 26 211 3.2 6.4 0.00 0.00 0.00 95 1015.3
20260906170428 26 208 1.6 4.8 0.00 0.00 0.00 95 1015.3
20260906165900 26 209 0.0 3.2 0.00 0.00 0.00 97 1015.1
20260906165428 26 208 0.0 4.8 0.00 0.00 0.00 98 1015.1
20260906164459 26 208 1.6 6.4 0.00 0.00 0.00 99 1015.1
20260906164428 26 208 1.6 6.4 0.00 0.00 0.00 99 1015.1
20260906163801 26 209 1.6 8.0 0.00 0.00 0.00 99 1015.1
20260906163428 26 211 0.0 8.0 0.00 0.00 0.00 100 1015.1
20260906163104 26 211 0.0 8.0 0.00 0.00 0.00 100 1015.1
20260906162429 25 207 0.0 4.8 0.00 0.00 0.00 100 1015.0
20260906162400 25 207 0.0 4.8 0.00 0.00 0.00 100 1015.0
20260906161700 25 185 3.2 8.0 0.00 0.00 0.00 100 1014.9
20260906161429 25 186 1.6 8.0 0.00 0.00 0.00 100 1014.9
20260906161001 25 173 1.6 9.7 0.00 0.00 0.00 100 1014.9
20260906160428 25 147 3.2 9.7 0.00 0.00 0.00 100 1014.9
20260906160300 25 147 3.2 9.7 0.00 0.00 0.00 100 1014.9
20260906155600 25 183 0.0 9.7 0.00 0.00 0.00 100 1014.9
20260906155428 25 180 1.6 9.7 0.00 0.00 0.00 100 1014.9
20260906154906 25 191 1.6 9.7 0.00 0.00 0.00 100 1015.0
20260906154428 25 182 4.8 9.7 0.00 0.00 0.00 100 1014.9
20260906154201 25 182 4.8 9.7 0.00 0.00 0.00 100 1014.9
20260906153501 25 172 3.2 9.7 0.00 0.00 0.00 100 1014.6
20260906153428 25 172 3.2 9.7 0.00 0.00 0.00 100 1014.6
20260906152759 25 177 4.8 8.0 0.00 0.00 0.00 100 1014.7
20260906152428 25 164 0.0 9.7 0.00 0.00 0.00 100 1014.7
20260906152102 25 164 0.0 9.7 0.00 0.00 0.00 100 1014.7
20260906151428 25 169 1.6 11.3 0.00 0.00 0.00 100 1014.7
20260906151401 25 169 1.6 11.3 0.00 0.00 0.00 100 1014.7
20260906150701 25 156 1.6 9.7 0.00 0.00 0.00 100 1014.7
20260906150427 25 181 1.6 9.7 0.00 0.00 0.00 100 1014.8
20260906145959 25 173 3.2 8.0 0.00 0.00 0.00 100 1014.9
20260906145427 25 178 1.6 14.5 0.00 0.00 0.00 100 1014.9
20260906145259 25 178 1.6 14.5 0.00 0.00 0.00 100 1014.9
20260906144603 25 184 3.2 14.5 0.00 0.00 0.00 100 1014.9
20260906144427 25 120 3.2 11.3 0.00 0.00 0.00 100 1014.8
20260906143900 25 180 4.8 11.3 0.00 0.00 0.00 100 1014.7
20260906143427 25 177 1.6 11.3 0.00 0.00 0.00 100 1014.6
20260906143158 25 177 1.6 11.3 0.00 0.00 0.00 100 1014.6
20260906142500 24 188 1.6 9.7 0.00 0.00 0.00 100 1014.6
20260906142429 24 188 1.6 9.7 0.00 0.00 0.00 100 1014.6
20260906141801 24 128 1.6 9.7 0.00 0.00 0.00 100 1014.5
20260906141429 24 140 3.2 9.7 0.00 0.00 0.00 100 1014.5
20260906141100 24 140 3.2 9.7 0.00 0.00 0.00 100 1014.5
20260906140429 24 161 3.2 11.3 0.00 0.00 0.00 100 1014.4
20260906140402 24 161 3.2 11.3 0.00 0.00 0.00 100 1014.4
20260906135702 24 125 1.6 11.3 0.00 0.00 0.00 100 1014.5
20260906135428 24 97 4.8 11.3 0.00 0.00 0.00 100 1014.5
20260906135003 24 98 1.6 11.3 0.00 0.00 0.00 100 1014.5
20260906134428 24 121 3.2 11.3 0.00 0.00 0.00 100 1014.5
20260906134303 24 121 3.2 11.3 0.00 0.00 0.00 100 1014.5
20260906133601 24 110 3.2 8.0 0.00 0.00 0.00 100 1014.5
20260906133427 23 106 1.6 11.3 0.00 0.00 0.00 100 1014.3
20260906132859 23 102 6.4 12.9 0.00 0.00 0.00 100 1014.5
20260906132427 23 85 3.2 12.9 0.00 0.00 0.00 100 1014.4
20260906132201 23 85 3.2 12.9 0.00 0.00 0.00 100 1014.4
20260906131503 23 100 4.8 8.0 0.00 0.00 0.00 100 1014.5
20260906131429 23 100 4.8 8.0 0.00 0.00 0.00 100 1014.5
20260906130805 23 94 3.2 8.0 0.00 0.00 0.00 100 1014.4
20260906130429 23 91 4.8 8.0 0.00 0.00 0.00 100 1014.4
20260906125429 23 114 6.4 11.3 0.00 0.00 0.00 100 1014.5
20260906125404 23 114 6.4 11.3 0.00 0.00 0.00 100 1014.5
20260906124659 23 96 4.8 8.0 0.00 0.00 0.00 100 1014.4
20260906124428 23 127 3.2 8.0 0.00 0.00 0.00 100 1014.3
20260906123959 23 93 4.8 9.7 0.00 0.00 0.00 100 1014.2
20260906123427 23 118 4.8 9.7 0.00 0.00 0.00 100 1014.1
20260906123300 23 118 4.8 9.7 0.00 0.00 0.00 100 1014.1
20260906122600 23 84 1.6 8.0 0.00 0.00 0.00 100 1013.9
20260906122427 23 112 3.2 8.0 0.00 0.00 0.00 100 1014.0
20260906121900 23 95 1.6 9.7 0.00 0.00 0.00 100 1013.9
20260906121427 23 98 3.2 11.3 0.00 0.00 0.00 100 1013.9
20260906121200 23 98 3.2 11.3 0.00 0.00 0.00 100 1013.9
20260906120503 23 100 4.8 8.0 0.00 0.00 0.00 100 1013.7
20260906120429 23 100 4.8 8.0 0.00 0.00 0.00 100 1013.7
20260906115800 23 108 3.2 9.7 0.00 0.03 0.00 100 1013.6
20260906115429 23 91 4.8 9.7 0.00 0.03 0.00 100 1013.6
20260906115104 23 91 4.8 9.7 0.00 0.03 0.00 100 1013.6
20260906114428 23 98 3.2 9.7 0.00 0.10 0.00 100 1013.6
20260906114400 23 98 3.2 9.7 0.00 0.10 0.00 100 1013.6
20260906113659 23 157 1.6 8.0 0.00 0.15 0.00 100 1013.7
20260906113428 23 122 3.2 8.0 0.00 0.20 0.00 100 1013.6
20260906113000 23 115 3.2 8.0 0.00 0.25 0.00 100 1013.6
20260906112428 23 98 3.2 8.0 0.00 0.33 0.00 100 1013.5
20260906112301 23 98 3.2 8.0 0.00 0.33 0.00 100 1013.5
20260906111600 23 128 3.2 8.0 0.00 0.41 0.00 100 1013.5
20260906111428 23 94 1.6 8.0 0.00 0.46 0.00 100 1013.6
20260906110859 23 150 3.2 8.0 0.00 0.51 0.00 100 1013.6
20260906110428 23 101 3.2 8.0 0.00 0.58 0.00 100 1013.6
20260906110159 23 101 3.2 8.0 0.00 0.58 0.00 100 1013.6
20260906105502 23 98 1.6 9.7 0.00 0.69 0.00 100 1013.7
20260906105428 23 98 1.6 9.7 0.00 0.69 0.00 100 1013.7
20260906104759 23 108 1.6 8.0 0.00 0.71 0.00 100 1013.6
20260906104427 23 91 4.8 8.0 0.00 0.74 0.00 100 1013.6
20260906104101 23 91 4.8 8.0 0.00 0.74 0.00 100 1013.6
20260906103427 23 117 3.2 9.7 0.00 0.76 0.00 100 1013.6
20260906103358 23 117 3.2 9.7 0.00 0.76 0.00 100 1013.6
20260906102658 23 112 3.2 9.7 0.00 0.81 0.00 100 1013.6
20260906102427 23 104 4.8 9.7 0.00 0.86 0.00 100 1013.4
20260906102002 23 93 6.4 9.7 0.00 0.91 0.00 100 1013.4
20260906101428 23 108 6.4 11.3 0.00 0.91 0.00 100 1013.5
20260906101304 23 108 6.4 11.3 0.00 0.91 0.00 100 1013.5
20260906100559 23 86 4.8 12.9 0.00 0.91 0.00 100 1013.5
20260906100428 23 87 4.8 12.9 0.00 0.91 0.00 100 1013.6
20260906095859 22 107 4.8 9.7 0.00 0.91 0.00 100 1013.6
20260906095428 22 93 6.4 9.7 0.00 0.91 0.00 100 1013.6
20260906095200 22 93 6.4 9.7 0.00 0.91 0.00 100 1013.6
20260906094504 22 103 3.2 6.4 0.00 0.91 0.00 100 1013.7
20260906094427 22 103 3.2 6.4 0.00 0.91 0.00 100 1013.7
20260906093759 22 103 3.2 6.4 0.00 0.91 0.00 100 1013.7
20260906093427 22 77 0.0 6.4 0.00 0.91 0.00 100 1013.7
20260906093059 22 77 0.0 6.4 0.00 0.91 0.00 100 1013.7
20260906092427 22 102 3.2 9.7 0.00 0.91 0.00 100 1013.9
20260906092402 22 102 3.2 9.7 0.00 0.91 0.00 100 1013.9
20260906091702 22 102 4.8 9.7 0.00 0.91 0.00 100 1013.9
20260906091429 22 125 4.8 9.7 0.00 0.91 0.00 100 1013.8
20260906091001 22 129 3.2 6.4 0.00 0.91 0.00 100 1013.8
20260906090428 22 129 3.2 6.4 0.00 0.91 0.00 100 1013.9
20260906090301 22 129 3.2 6.4 0.00 0.91 0.00 100 1013.9
20260906085602 22 130 3.2 6.4 0.00 0.91 0.00 100 1013.8
20260906085428 22 130 3.2 6.4 0.00 0.91 0.00 100 1013.9
20260906084902 22 130 3.2 6.4 0.00 0.91 0.00 100 1013.8
20260906084428 22 130 0.0 4.8 0.00 0.91 0.00 100 1013.9
20260906084159 22 130 0.0 4.8 0.00 0.91 0.00 100 1013.9
20260906083501 22 131 1.6 4.8 0.00 0.91 0.00 100 1013.8
20260906083427 22 131 1.6 4.8 0.00 0.91 0.00 100 1013.8
20260906082801 22 133 0.0 3.2 0.00 0.91 0.00 100 1013.6
20260906082427 22 133 0.0 4.8 0.00 0.91 0.00 100 1013.5
20260906082058 22 133 0.0 4.8 0.00 0.91 0.00 100 1013.5
20260906081429 22 145 1.6 4.8 0.00 0.91 0.00 100 1013.3
20260906081402 22 145 1.6 4.8 0.00 0.91 0.00 100 1013.3
20260906080701 22 153 1.6 4.8 0.00 0.91 0.00 100 1013.3
20260906080429 22 93 0.0 4.8 0.00 0.91 0.00 100 1013.3
20260906080002 22 106 1.6 4.8 0.00 0.91 0.00 100 1013.2
20260906075429 22 105 1.6 6.4 0.00 0.91 0.00 100 1013.3
20260906075305 22 105 1.6 6.4 0.00 0.91 0.00 100 1013.3
20260906074602 22 105 1.6 9.7 0.00 0.91 0.00 100 1013.4
20260906074428 22 165 1.6 9.7 0.00 0.91 0.00 100 1013.4
20260906073900 22 153 1.6 6.4 0.00 0.91 0.00 100 1013.5
20260906073427 22 137 0.0 8.0 0.00 0.91 0.00 100 1013.3
20260906073201 22 137 0.0 8.0 0.00 0.91 0.00 100 1013.3
20260906072458 22 96 3.2 9.7 0.00 0.91 0.00 100 1013.4
20260906072427 22 96 3.2 9.7 0.00 0.91 0.00 100 1013.4
20260906071800 22 86 3.2 11.3 0.00 0.91 0.00 100 1013.2
20260906071427 22 98 3.2 11.3 0.00 0.91 0.00 100 1013.3
20260906071102 22 98 3.2 11.3 0.00 0.91 0.00 100 1013.3
20260906070429 22 112 3.2 8.0 0.00 0.91 0.00 100 1013.4
20260906070402 22 112 3.2 8.0 0.00 0.91 0.00 100 1013.4
20260906065701 22 103 1.6 8.0 0.00 0.91 0.00 100 1013.3
20260906065429 22 104 4.8 8.0 0.00 0.91 0.00 100 1013.4
20260906065000 22 105 4.8 8.0 0.00 0.91 0.00 100 1013.4
20260906064429 22 92 3.2 6.4 0.00 0.91 0.00 100 1013.6
20260906064300 22 92 3.2 6.4 0.00 0.91 0.00 100 1013.6
20260906063600 22 107 3.2 6.4 0.00 0.91 0.00 100 1013.6
20260906063428 22 107 3.2 6.4 0.00 0.91 0.00 100 1013.5
20260906062901 22 107 3.2 6.4 0.00 0.91 0.00 100 1013.6
20260906062428 22 107 1.6 6.4 0.00 0.91 0.00 100 1013.5
20260906062203 22 107 1.6 6.4 0.00 0.91 0.00 100 1013.5
20260906061500 22 103 3.2 8.0 0.00 0.91 0.00 100 1013.4
20260906061428 22 103 3.2 8.0 0.00 0.91 0.00 100 1013.4
20260906060800 22 104 3.2 6.4 0.00 0.91 0.00 100 1013.5
20260906060428 22 104 3.2 4.8 0.00 0.91 0.00 100 1013.6
20260906060100 22 104 3.2 4.8 0.00 0.91 0.00 100 1013.6
20260906055428 22 104 1.6 4.8 0.00 0.91 0.00 100 1013.5
20260906055400 22 104 1.6 4.8 0.00 0.91 0.00 100 1013.5
20260906054700 22 104 0.0 3.2 0.00 0.91 0.00 100 1013.6
20260906054428 22 104 0.0 1.6 0.00 0.91 0.00 100 1013.7
20260906054001 22 104 0.0 1.6 0.00 0.91 0.00 99 1013.9
20260906053427 22 104 0.0 1.6 0.00 0.91 0.00 99 1013.9
20260906053259 22 104 0.0 1.6 0.00 0.91 0.00 99 1013.9
20260906052601 22 104 0.0 3.2 0.00 0.91 0.00 99 1013.7
20260906052427 22 104 0.0 4.8 0.00 0.91 0.00 99 1014.0
20260906051900 22 104 1.6 4.8 0.00 0.91 0.00 99 1013.9
20260906051427 22 104 3.2 4.8 0.00 0.91 0.00 98 1014.0
20260906051159 22 104 3.2 4.8 0.00 0.91 0.00 98 1014.0
20260906050459 22 104 0.0 4.8 0.00 0.91 0.91 97 1014.1
20260906050427 22 104 0.0 4.8 0.00 0.91 0.91 97 1014.1
20260906045759 22 104 1.6 4.8 0.00 0.91 0.91 97 1014.0
20260906045427 22 104 1.6 4.8 0.00 0.91 0.91 96 1013.9
20260906045100 22 104 1.6 4.8 0.00 0.91 0.91 96 1013.9
20260906044429 22 104 0.0 1.6 0.00 0.91 0.91 95 1014.1
20260906044402 22 104 0.0 1.6 0.00 0.91 0.91 95 1014.1
20260906043701 22 104 0.0 3.2 0.00 0.91 0.91 95 1014.1
20260906043429 23 104 1.6 4.8 0.00 0.91 0.91 95 1013.9
20260906043002 23 104 1.6 6.4 0.00 0.91 0.91 94 1014.0
20260906042429 23 104 1.6 6.4 0.00 0.91 0.91 94 1014.0
20260906042308 23 104 1.6 6.4 0.00 0.91 0.91 94 1014.0
20260906041600 23 182 1.6 6.4 0.00 0.91 0.91 94 1014.0
20260906041428 23 158 1.6 6.4 0.00 0.91 0.91 94 1013.8
20260906040904 23 142 1.6 3.2 0.00 0.91 0.91 93 1014.0
20260906040428 23 142 0.0 3.2 0.00 0.91 0.91 93 1013.9
20260906040202 23 142 0.0 3.2 0.00 0.91 0.91 93 1013.9
20260906035500 23 168 1.6 6.4 0.00 0.91 0.91 92 1013.9
20260906035428 23 168 1.6 6.4 0.00 0.91 0.91 92 1013.9
20260906034759 23 168 1.6 9.7 0.00 0.91 0.91 92 1013.9
20260906034428 23 158 1.6 9.7 0.00 0.91 0.91 92 1014.0
20260906034059 23 158 1.6 9.7 0.00 0.91 0.91 92 1014.0
20260906033428 23 171 1.6 11.3 0.00 0.91 0.91 91 1013.8
20260906033401 23 171 1.6 11.3 0.00 0.91 0.91 91 1013.8
20260906032659 23 194 3.2 9.7 0.00 0.91 0.91 90 1013.6
20260906032428 23 165 1.6 4.8 0.00 0.91 0.91 90 1013.6
20260906031959 23 165 1.6 9.7 0.00 0.91 0.91 89 1013.6
20260906031428 23 165 1.6 11.3 0.00 0.91 0.91 89 1013.6
20260906031300 23 165 1.6 11.3 0.00 0.91 0.91 89 1013.6
20260906030600 23 192 1.6 11.3 0.00 0.91 0.91 88 1013.6
20260906030427 24 137 3.2 4.8 0.00 0.91 0.91 88 1013.4
20260906025859 24 185 1.6 4.8 0.00 0.91 0.91 87 1013.7
20260906025427 24 148 1.6 4.8 0.00 0.91 0.91 86 1013.6
20260906025158 24 148 1.6 4.8 0.00 0.91 0.91 86 1013.6
20260906024501 25 110 1.6 4.8 0.00 0.91 0.91 86 1013.7
20260906024429 25 110 1.6 4.8 0.00 0.91 0.91 86 1013.7
20260906023801 25 115 1.6 6.4 0.00 0.91 0.91 85 1013.7
20260906023429 25 106 0.0 8.0 0.00 0.91 0.91 85 1013.6
20260906023100 25 106 0.0 8.0 0.00 0.91 0.91 85 1013.6
20260906022429 25 109 1.6 6.4 0.00 0.91 0.91 83 1013.4
20260906022400 25 109 1.6 6.4 0.00 0.91 0.91 83 1013.4
20260906021700 25 106 1.6 8.0 0.00 0.91 0.91 83 1013.3
20260906021429 25 90 3.2 8.0 0.00 0.91 0.91 82 1013.2
20260906021002 25 143 1.6 4.8 0.00 0.91 0.91 82 1013.3
20260906020429 25 109 1.6 4.8 0.00 0.91 0.91 81 1013.4
20260906020300 25 109 1.6 4.8 0.00 0.91 0.91 81 1013.4
20260906015601 25 109 0.0 3.2 0.00 0.91 0.91 81 1013.2
20260906015428 26 109 0.0 6.4 0.00 0.91 0.91 80 1012.9
20260906014901 26 109 1.6 6.4 0.00 0.91 0.91 80 1013.0
20260906014428 26 141 1.6 6.4 0.00 0.91 0.91 79 1013.1
20260906014200 26 141 1.6 6.4 0.00 0.91 0.91 79 1013.1
20260906013501 26 169 1.6 8.0 0.00 0.91 0.91 78 1013.0
20260906013428 26 169 1.6 8.0 0.00 0.91 0.91 78 1013.0
20260906012759 26 108 1.6 8.0 0.00 0.91 0.91 77 1012.9
20260906012428 26 176 1.6 8.0 0.00 0.91 0.91 76 1012.9
20260906012059 26 176 1.6 8.0 0.00 0.91 0.91 76 1012.9
20260906011428 27 100 1.6 4.8 0.00 0.91 0.91 75 1012.9
20260906011400 27 100 1.6 4.8 0.00 0.91 0.91 75 1012.9
20260906010659 27 139 1.6 4.8 0.00 0.91 0.91 74 1013.0
20260906010428 27 141 1.6 8.0 0.00 0.91 0.91 73 1013.0
20260906010000 27 118 1.6 8.0 0.00 0.91 0.91 73 1013.0
20260906005427 27 160 1.6 9.7 0.00 0.91 0.91 72 1012.9
20260906005300 27 160 1.6 9.7 0.00 0.91 0.91 72 1012.9
20260906004600 28 103 3.2 9.7 0.00 0.91 0.91 71 1012.9
20260906004427 28 161 1.6 6.4 0.00 0.91 0.91 70 1012.9
20260906003902 28 135 3.2 9.7 0.00 0.91 0.91 69 1013.0
20260906003428 28 80 1.6 9.7 0.00 0.91 0.91 69 1012.9
20260906003201 28 80 1.6 9.7 0.00 0.91 0.91 69 1012.9
20260906002500 29 150 1.6 9.7 0.00 0.91 0.91 66 1012.6
20260906002428 29 150 1.6 9.7 0.00 0.91 0.91 66 1012.6
20260906001759 29 137 3.2 8.0 0.00 0.91 0.91 65 1012.6
20260906001428 29 168 1.6 6.4 0.00 0.91 0.91 64 1012.5
20260906001059 29 168 1.6 6.4 0.00 0.91 0.91 64 1012.5
20260906000428 30 161 1.6 9.7 0.00 0.91 0.91 63 1012.3
20260906000400 30 161 1.6 9.7 0.00 0.91 0.91 63 1012.3
20260905235659 30 151 1.6 6.4 0.00 0.91 0.91 63 1012.0
20260905235428 30 145 3.2 11.3 0.00 0.91 0.91 63 1012.0
20260905234959 30 184 3.2 11.3 0.00 0.91 0.91 62 1012.1
20260905234427 30 180 1.6 12.9 0.00 0.91 0.91 62 1012.0
20260905234259 30 180 1.6 12.9 0.00 0.91 0.91 62 1012.0
20260905233600 30 183 4.8 12.9 0.00 0.91 0.91 61 1012.1
20260905233427 30 203 1.6 12.9 0.00 0.91 0.91 61 1012.1
20260905232858 30 173 3.2 16.1 0.00 0.91 0.91 62 1012.1
20260905232427 30 173 3.2 17.7 0.00 0.91 0.91 62 1012.1
20260905232200 30 173 3.2 17.7 0.00 0.91 0.91 62 1012.1
20260905231501 30 158 3.2 12.9 0.00 0.91 0.91 63 1012.1
20260905231429 30 158 3.2 12.9 0.00 0.91 0.91 63 1012.1
20260905230801 30 156 4.8 9.7 0.00 0.91 0.91 62 1012.1
20260905230429 30 191 3.2 8.0 0.00 0.91 0.91 62 1012.1
20260905230100 30 191 3.2 8.0 0.00 0.91 0.91 62 1012.1
20260905225429 31 167 6.4 12.9 0.00 0.91 0.91 61 1012.1
20260905225401 31 167 6.4 12.9 0.00 0.91 0.91 61 1012.1
20260905224700 31 139 3.2 9.7 0.00 0.91 0.91 61 1012.1
20260905224429 31 152 1.6 11.3 0.00 0.91 0.91 60 1012.1
20260905224004 31 167 4.8 12.9 0.00 0.91 0.91 59 1012.1
20260905223428 31 184 1.6 12.9 0.00 0.91 0.91 60 1012.2
20260905223300 31 184 1.6 12.9 0.00 0.91 0.91 60 1012.2
20260905222604 31 205 3.2 11.3 0.00 0.91 0.91 59 1012.2
20260905222428 31 164 1.6 9.7 0.00 0.91 0.91 60 1012.2
20260905221859 31 190 4.8 12.9 0.00 0.91 0.91 60 1012.1
20260905221428 31 162 3.2 12.9 0.00 0.91 0.91 60 1012.2
20260905221200 31 162 3.2 12.9 0.00 0.91 0.91 60 1012.2
20260905220501 31 160 3.2 8.0 0.00 0.91 0.91 60 1012.1
20260905220428 31 160 3.2 8.0 0.00 0.91 0.91 60 1012.1
20260905215759 31 140 3.2 9.7 0.00 0.91 0.91 61 1012.0
20260905215428 31 116 4.8 11.3 0.00 0.91 0.91 60 1012.0
20260905215100 31 116 4.8 11.3 0.00 0.91 0.91 60 1012.0
20260905214428 31 135 3.2 11.3 0.00 0.91 0.91 61 1012.0
20260905214401 31 135 3.2 11.3 0.00 0.91 0.91 61 1012.0
20260905213701 31 144 3.2 11.3 0.00 0.91 0.91 60 1012.0
20260905213428 31 168 4.8 11.3 0.00 0.91 0.91 59 1011.9
20260905213001 31 148 3.2 11.3 0.00 0.91 0.91 59 1012.0
20260905212428 31 175 3.2 11.3 0.00 0.91 0.91 59 1011.9
20260905212300 31 175 3.2 11.3 0.00 0.91 0.91 59 1011.9
20260905211600 31 118 4.8 11.3 0.00 0.91 0.91 59 1011.9
20260905211427 30 110 3.2 11.3 0.00 0.91 0.91 60 1011.9
20260905210901 30 101 4.8 12.9 0.00 0.91 0.91 59 1012.0
20260905210427 30 119 3.2 12.9 0.00 0.91 0.91 59 1012.0
20260905210201 30 119 3.2 12.9 0.00 0.91 0.91 59 1012.0
20260905205458 31 117 4.8 11.3 0.00 0.91 0.91 58 1011.9
20260905205427 31 117 4.8 11.3 0.00 0.91 0.91 58 1011.9
20260905204803 31 159 6.4 12.9 0.00 0.91 0.91 58 1011.9
20260905204429 30 151 4.8 14.5 0.00 0.91 0.91 57 1011.9
20260905204100 30 151 4.8 14.5 0.00 0.91 0.91 57 1011.9
20260905203429 31 117 4.8 12.9 0.00 0.91 0.91 58 1011.8
20260905203401 31 117 4.8 12.9 0.00 0.91 0.91 58 1011.8
20260905202706 31 110 4.8 12.9 0.00 0.91 0.91 58 1011.7
20260905202429 31 122 4.8 12.9 0.00 0.91 0.91 58 1011.8
20260905202003 31 171 4.8 17.7 0.00 0.91 0.91 59 1011.8
20260905201428 31 96 8.0 17.7 0.00 0.91 0.91 59 1011.8
20260905201300 31 96 8.0 17.7 0.00 0.91 0.91 59 1011.8
20260905200600 30 111 4.8 16.1 0.00 0.91 0.91 60 1011.8
20260905200428 30 101 6.4 16.1 0.00 0.91 0.91 60 1011.6
20260905195900 30 98 8.0 14.5 0.00 0.91 0.91 59 1011.7
20260905195428 30 132 3.2 12.9 0.00 0.91 0.91 61 1011.8
20260905195201 30 132 3.2 12.9 0.00 0.91 0.91 61 1011.8
20260905194500 30 98 3.2 19.3 0.00 0.91 0.91 63 1011.9
20260905194428 30 98 3.2 19.3 0.00 0.91 0.91 63 1011.9
20260905193801 30 85 11.3 16.1 0.00 0.91 0.91 62 1012.0